Wind_Speed
22 24 25 27 30 32 35 37 39 41 43 45 45 46 46 47 47 46 45 42 41 41 41 40 39 39 39 38 37 37 36 35 35 35 34 33 34 33 30 28 27 27 27
21 23 26 28 30 33 35 37 39 40 42 43 44 45 45 46 46 46 45 44 42 42 43 43 42 42 41 40 38 38 35 33 34 33 33 33 32 33 31 29 28 28 27
21 23 25 27 29 31 33 35 36 38 40 42 43 45 46 46 46 46 46 45 44 44 44 45 45 44 43 41 39 37 35 35 34 33 33 32 32 31 30 31 29 29 28
22 24 26 27 29 31 33 35 36 38 40 42 44 45 46 46 46 47 47 47 47 46 45 45 46 45 45 43 41 40 38 37 36 34 33 34 33 32 31 31 31 30 30
24 25 27 28 30 33 35 37 37 38 40 42 44 44 45 46 47 47 47 46 46 45 45 45 45 45 44 44 43 41 40 39 38 37 34 34 35 34 32 31 32 32 32
25 27 28 30 32 34 36 38 39 39 40 41 43 44 45 45 46 46 46 45 44 44 43 43 43 42 43 43 43 42 41 40 39 39 38 37 35 34 34 34 33 33 33
27 29 30 32 34 36 37 38 40 40 40 41 42 43 44 44 43 43 43 42 41 41 41 40 41 41 40 41 41 42 41 41 41 41 41 39 37 37 37 37 35 35 35
28 30 32 34 36 38 39 40 40 40 41 41 42 42 41 41 40 41 41 40 39 39 39 39 40 40 41 41 41 42 42 42 42 43 42 40 39 39 38 37 36 35 36
30 32 34 36 38 39 40 41 41 41 41 41 40 40 39 39 39 39 39 39 40 40 41 42 42 42 43 43 43 43 44 45 44 44 45 44 43 42 40 39 38 37 36
32 34 36 38 40 40 41 41 41 41 41 40 39 38 38 38 39 39 39 40 41 43 44 45 45 45 46 46 47 46 46 47 48 48 48 47 46 44 43 42 40 40 40
33 35 37 39 41 41 42 42 42 41 40 40 39 38 38 39 39 40 41 42 43 44 45 47 48 49 49 49 49 49 49 49 50 50 51 51 50 48 47 45 43 42 44
34 36 39 41 41 42 42 42 41 41 41 40 39 39 39 40 41 42 43 44 45 46 47 48 49 50 51 51 52 52 52 52 52 52 53 54 54 53 51 49 47 46 44
36 38 40 41 42 42 42 42 42 42 42 41 40 40 41 42 43 43 45 45 46 47 48 49 49 50 51 52 53 54 54 54 54 54 55 57 57 57 56 54 51 49 47
37 39 41 42 43 43 43 43 42 43 42 42 41 42 42 43 43 44 45 46 47 49 49 48 48 49 49 50 51 53 54 54 54 54 55 58 59 60 59 58 56 53 51
39 41 42 44 44 44 44 44 44 43 43 43 42 43 43 43 44 45 46 47 47 47 47 47 47 47 47 47 48 49 50 51 53 53 54 56 60 61 61 60 59 58 55
39 42 44 45 45 45 45 45 44 44 43 43 43 43 43 44 45 46 46 46 46 46 46 46 45 44 44 45 46 46 47 48 50 52 53 54 57 60 61 62 61 61 59
41 44 45 46 46 46 46 45 45 44 43 43 43 44 44 44 45 45 46 46 45 45 44 43 42 41 41 41 42 43 44 45 46 49 51 54 54 57 59 61 61 61 61
43 45 46 46 47 47 46 46 45 44 44 43 43 44 44 44 44 45 46 45 44 43 41 40 39 38 37 38 38 39 40 41 42 45 49 51 51 53 56 58 59 60 60
44 46 47 47 47 47 47 46 45 45 44 44 44 44 44 44 44 45 45 44 42 40 38 36 35 34 33 33 33 34 35 37 39 42 45 47 47 49 51 53 55 56 58
45 46 46 48 48 48 47 46 45 45 44 44 44 44 44 44 44 44 44 42 40 37 35 33 32 31 30 29 28 28 30 32 35 39 43 45 45 45 47 49 51 53 54
45 46 47 48 49 48 47 46 45 45 45 44 44 44 44 44 43 43 43 40 38 36 33 32 30 29 28 26 25 24 25 28 31 35 39 42 44 44 43 44 47 49 51
45 46 46 48 48 48 47 46 45 45 44 44 44 44 43 43 43 43 41 38 37 34 32 30 28 27 24 22 19 18 21 24 27 31 34 39 41 42 42 42 43 45 47
44 45 46 47 48 48 48 46 45 45 44 43 44 43 43 43 43 41 39 37 35 33 31 28 26 24 21 18 15 14 16 20 24 27 31 35 37 38 39 40 41 42 43
44 44 45 46 47 48 47 46 45 44 44 43 43 43 42 42 42 40 39 37 34 32 28 25 23 20 17 13 10 9 12 16 20 25 27 30 33 34 36 38 38 39 39
43 43 44 46 47 47 47 46 45 44 43 42 42 42 42 42 41 39 38 37 33 30 26 23 21 16 13 11 7 5 9 14 19 22 25 28 30 32 33 34 35 36 37
42 43 44 45 46 47 47 46 44 43 42 41 41 41 41 40 40 38 36 35 32 28 24 22 19 15 11 8 4 4 9 13 17 21 23 24 27 28 29 31 32 33 34
Wind_Direction
281 280 279 279 279 279 280 282 283 284 285 286 287 287 288 288 288 288 287 286 285 285 284 283 283 281 282 284 282 278 275 273 272 269 262 258 254 250 246 244 241 238 236
287 286 284 283 282 282 283 284 285 286 286 286 287 287 287 287 287 287 287 286 285 284 282 281 280 279 279 279 278 278 273 271 268 266 262 258 253 247 245 240 238 237 235
295 292 290 289 288 287 287 288 288 288 289 288 288 288 288 288 288 288 288 287 285 283 282 281 280 279 278 277 276 275 269 267 267 264 258 254 246 246 244 237 236 236 234
304 301 299 297 295 294 293 293 293 293 293 292 292 292 292 291 290 289 288 287 286 284 282 280 279 278 277 275 274 272 270 266 265 261 255 251 246 246 241 237 234 235 234
311 310 307 305 303 302 301 300 299 298 296 296 295 294 293 293 292 290 289 288 287 285 284 282 279 278 276 274 272 270 268 265 262 256 252 251 247 243 238 236 235 234 232
317 316 314 312 310 308 307 306 305 303 301 299 298 297 296 295 294 293 292 291 289 287 285 283 281 277 275 272 270 268 265 263 260 255 251 249 247 242 236 232 234 233 230
322 321 320 318 316 314 313 311 310 309 307 304 302 300 299 297 296 295 294 293 292 291 288 286 283 279 275 271 269 267 264 261 258 254 251 247 245 244 239 235 232 229 227
326 326 325 324 322 320 318 316 314 311 309 307 304 302 300 298 297 296 295 293 291 290 289 288 286 283 278 273 268 266 263 260 257 251 248 244 242 242 239 234 231 228 226
328 328 327 327 325 323 320 318 316 313 311 308 306 303 301 299 297 296 294 293 291 289 288 288 285 283 279 275 270 266 262 259 255 251 247 244 241 239 237 233 229 226 225
330 329 329 328 327 324 322 319 317 315 313 310 306 303 301 299 297 295 294 292 291 289 287 286 285 283 280 276 272 267 262 258 255 251 247 244 242 239 236 233 231 228 226
330 330 330 329 328 326 324 321 319 317 315 312 308 304 302 300 298 296 295 293 291 289 287 285 283 282 279 276 272 268 262 257 254 251 247 243 241 240 237 234 232 230 227
331 331 331 330 329 328 325 323 321 319 317 314 310 307 304 302 300 299 297 295 293 291 289 286 283 280 277 274 270 267 262 258 253 250 247 243 240 238 237 233 231 230 227
331 331 332 331 330 329 327 325 322 320 318 315 312 309 307 305 303 301 300 297 296 294 292 289 286 282 277 273 269 265 261 257 253 249 246 242 240 237 236 233 231 229 227
332 332 332 332 331 330 328 326 324 322 319 317 314 311 310 308 306 305 303 301 299 297 295 291 288 284 279 274 269 264 260 255 251 247 243 240 239 237 235 234 231 229 227
332 332 332 333 332 331 329 328 326 324 321 318 315 314 312 311 309 308 307 305 303 300 297 294 290 286 280 275 269 264 259 253 248 244 241 239 237 235 235 233 231 230 228
332 333 334 334 334 333 331 329 328 325 322 320 318 317 315 313 312 311 310 308 306 303 300 297 293 288 282 276 270 264 258 252 247 242 238 237 235 234 233 232 230 230 229
335 336 336 335 335 334 333 331 329 327 325 323 321 320 318 317 316 315 314 312 310 307 304 301 296 291 284 278 271 264 256 250 245 240 237 235 234 233 232 231 230 229 228
338 337 337 336 336 335 334 333 331 329 328 326 324 323 322 321 320 319 318 316 313 311 307 303 299 294 289 281 272 263 255 248 242 238 234 233 232 232 231 230 229 228 227
338 338 338 338 337 337 336 334 333 332 330 329 327 326 325 324 324 323 322 320 318 314 311 307 303 299 293 285 276 265 254 246 240 235 232 230 229 230 229 229 229 228 227
337 338 338 339 339 338 337 336 335 334 332 331 330 330 329 328 327 326 325 323 321 317 314 311 307 303 297 289 279 266 252 242 236 232 229 227 226 226 226 226 227 227 226
337 338 338 339 340 340 339 338 337 336 334 333 333 333 332 331 330 330 329 327 325 321 317 315 310 306 300 293 281 265 249 237 232 228 225 223 223 223 223 224 224 224 225
337 338 339 340 340 341 340 339 338 337 336 336 336 336 335 335 334 333 333 331 328 325 321 319 315 312 307 298 283 264 246 233 227 222 219 218 219 220 219 219 220 221 222
336 337 339 340 341 341 341 340 340 339 338 338 338 339 338 338 338 337 337 335 332 329 326 323 321 318 313 304 287 262 241 227 220 215 213 212 213 214 214 215 216 218 219
335 336 338 340 341 342 342 341 341 341 340 340 341 341 341 342 341 341 340 338 336 334 332 330 328 325 321 314 294 258 231 216 209 206 205 204 205 207 209 211 212 214 215
335 336 338 340 341 342 342 342 342 342 341 342 343 343 344 344 345 344 343 343 341 340 338 337 336 333 329 322 307 250 213 201 198 198 197 196 199 202 204 207 209 211 211
334 336 338 340 341 342 343 343 342 343 343 343 344 345 347 347 348 348 347 347 347 346 345 343 344 343 339 334 310 226 198 196 193 191 192 193 194 195 198 201 204 205 206
Height
5855 5854 5853 5852 5851 5850 5848 5846 5844 5841 5838 5835 5832 5829 5826 5823 5820 5818 5816 5815 5813 5811 5810 5809 5808 5807 5807 5806 5805 5804 5803 5804 5805 5806 5808 5810 5813 5815 5819 5823 5827 5831 5834
5851 5849 5848 5847 5845 5843 5841 5838 5836 5833 5829 5826 5823 5820 5817 5813 5810 5808 5806 5805 5804 5802 5800 5799 5799 5798 5797 5797 5797 5796 5795 5796 5797 5799 5800 5802 5805 5808 5812 5816 5820 5824 5827
5846 5844 5842 5840 5838 5836 5833 5831 5828 5825 5821 5817 5813 5810 5806 5803 5800 5797 5795 5793 5793 5791 5790 5788 5788 5787 5787 5787 5787 5787 5787 5788 5790 5791 5793 5795 5798 5801 5805 5808 5813 5817 5821
5841 5839 5837 5834 5831 5828 5825 5822 5819 5816 5812 5807 5803 5799 5795 5792 5789 5786 5784 5782 5780 5779 5778 5777 5776 5776 5776 5776 5777 5778 5778 5780 5782 5783 5784 5788 5791 5794 5797 5800 5805 5809 5814
5836 5834 5831 5827 5824 5820 5817 5813 5810 5806 5802 5797 5792 5788 5784 5780 5777 5774 5772 5770 5768 5766 5765 5764 5764 5764 5764 5764 5765 5767 5768 5770 5772 5774 5776 5779 5782 5785 5790 5793 5797 5802 5807
5832 5828 5825 5821 5817 5813 5808 5803 5799 5795 5791 5786 5782 5777 5773 5769 5765 5762 5759 5757 5755 5753 5752 5751 5751 5751 5752 5752 5753 5755 5757 5759 5762 5765 5767 5770 5773 5777 5781 5785 5790 5794 5799
5827 5823 5819 5815 5810 5805 5800 5795 5790 5785 5780 5776 5771 5766 5762 5758 5754 5751 5748 5745 5743 5741 5740 5739 5738 5738 5739 5740 5741 5743 5745 5748 5751 5753 5757 5760 5764 5768 5772 5777 5781 5786 5791
5823 5818 5813 5809 5803 5797 5792 5786 5781 5776 5771 5766 5761 5756 5751 5747 5744 5741 5738 5735 5733 5731 5729 5727 5726 5726 5726 5727 5729 5731 5733 5736 5738 5741 5746 5750 5754 5758 5762 5767 5772 5777 5783
5819 5814 5808 5803 5797 5791 5784 5778 5772 5767 5762 5756 5751 5746 5742 5738 5734 5731 5728 5725 5722 5720 5718 5716 5715 5714 5713 5713 5715 5718 5720 5722 5726 5729 5734 5739 5744 5748 5753 5757 5762 5768 5774
5815 5809 5803 5797 5791 5784 5777 5770 5764 5758 5752 5747 5742 5737 5733 5728 5724 5721 5718 5714 5711 5708 5706 5703 5701 5700 5699 5699 5700 5703 5706 5708 5712 5716 5721 5726 5732 5737 5742 5747 5752 5758 5764
5811 5805 5798 5791 5784 5777 5770 5763 5756 5749 5743 5738 5732 5727 5723 5718 5714 5710 5706 5703 5699 5696 5693 5690 5687 5685 5684 5683 5684 5686 5689 5693 5696 5701 5706 5712 5718 5724 5730 5736 5742 5748 5754
5806 5799 5792 5785 5777 5770 5762 5755 5748 5741 5735 5728 5722 5717 5712 5707 5703 5698 5694 5690 5686 5682 5678 5675 5672 5670 5668 5667 5667 5668 5671 5675 5679 5684 5690 5696 5703 5710 5717 5724 5731 5737 5743
5800 5794 5786 5779 5771 5763 5755 5747 5739 5732 5725 5719 5713 5707 5701 5696 5691 5686 5681 5676 5671 5666 5662 5658 5654 5652 5650 5649 5648 5649 5652 5656 5661 5666 5673 5679 5686 5694 5702 5710 5718 5725 5732
5795 5787 5780 5772 5764 5755 5747 5739 5731 5724 5716 5710 5703 5697 5691 5685 5679 5673 5667 5661 5656 5650 5645 5640 5636 5633 5631 5629 5629 5630 5632 5636 5641 5647 5654 5661 5669 5677 5686 5695 5704 5712 5720
5789 5781 5773 5765 5756 5748 5739 5731 5723 5715 5707 5700 5693 5687 5680 5673 5667 5660 5654 5647 5640 5634 5628 5623 5619 5615 5612 5611 5610 5611 5613 5617 5622 5629 5636 5643 5651 5660 5669 5679 5689 5698 5707
5783 5775 5766 5758 5749 5740 5731 5723 5714 5706 5699 5691 5684 5676 5669 5662 5655 5648 5640 5633 5625 5618 5612 5606 5601 5597 5594 5592 5592 5592 5594 5599 5604 5611 5618 5625 5634 5643 5653 5663 5673 5684 5693
5777 5768 5759 5750 5741 5732 5723 5715 5706 5698 5690 5682 5675 5667 5659 5651 5643 5635 5627 5619 5611 5604 5597 5591 5585 5581 5577 5575 5574 5574 5577 5582 5588 5594 5602 5609 5618 5627 5637 5647 5657 5668 5679
5770 5762 5753 5744 5735 5725 5716 5707 5698 5690 5682 5674 5666 5657 5649 5641 5632 5623 5615 5606 5598 5590 5583 5577 5571 5566 5562 5559 5558 5558 5561 5566 5573 5579 5586 5594 5603 5612 5622 5632 5642 5653 5665
5764 5756 5746 5737 5728 5719 5709 5700 5691 5682 5674 5665 5657 5648 5639 5631 5622 5613 5603 5594 5586 5578 5571 5564 5558 5553 5549 5545 5544 5544 5547 5552 5559 5565 5572 5580 5590 5599 5609 5619 5630 5641 5651
5758 5750 5740 5731 5722 5712 5703 5693 5684 5675 5667 5658 5649 5640 5630 5621 5612 5603 5593 5584 5576 5568 5561 5554 5548 5542 5538 5534 5532 5532 5535 5540 5546 5553 5560 5569 5577 5586 5595 5606 5616 5627 5637
5752 5744 5734 5725 5716 5706 5697 5687 5678 5669 5660 5651 5642 5632 5623 5613 5604 5595 5585 5575 5567 5559 5552 5545 5539 5533 5528 5525 5523 5522 5525 5529 5535 5541 5549 5557 5566 5575 5585 5595 5605 5615 5626
5747 5738 5729 5720 5710 5701 5691 5682 5672 5663 5654 5645 5635 5626 5616 5606 5597 5587 5577 5568 5559 5551 5544 5538 5532 5526 5521 5517 5515 5515 5517 5521 5526 5532 5540 5548 5557 5566 5576 5586 5595 5605 5616
5741 5733 5724 5715 5705 5695 5686 5676 5667 5658 5648 5639 5630 5620 5610 5600 5591 5581 5571 5562 5553 5545 5538 5532 5526 5520 5516 5512 5510 5510 5511 5515 5520 5526 5533 5541 5549 5558 5568 5578 5587 5597 5608
5736 5727 5719 5710 5700 5691 5681 5671 5662 5653 5644 5634 5625 5615 5606 5596 5586 5576 5566 5557 5549 5541 5534 5527 5521 5516 5512 5509 5507 5507 5508 5511 5516 5522 5529 5536 5544 5552 5561 5571 5580 5590 5600
5730 5722 5714 5705 5696 5686 5676 5667 5657 5648 5639 5630 5621 5612 5602 5592 5582 5572 5563 5553 5545 5537 5530 5525 5519 5514 5511 5508 5506 5506 5507 5510 5515 5520 5526 5533 5541 5549 5557 5566 5575 5584 5593
5725 5717 5708 5700 5691 5681 5672 5663 5653 5644 5636 5627 5618 5608 5599 5589 5579 5570 5560 5551 5543 5535 5529 5523 5518 5514 5511 5508 5507 5507 5508 5511 5515 5520 5526 5532 5539 5546 5554 5562 5570 5578 5587